{"data":{"norad_id":47787,"intl_designator":"2021-018A","name":"STARLINK-2257","alt_names":[],"object_type":"PAYLOAD","status":"ACTIVE","operator":null,"country":"US","launch_date":"2021-03-11","launch_site_code":"AFETR","launch_vehicle":null,"mission":null,"orbit_class":"UNKNOWN","rcs_meters":null,"size_class":null,"mass_kg":null,"dimensions":null,"purposes":["comms"],"wikipedia_slug":null,"has_3d_model":false,"image_url":null,"decayed_at":null,"tle_current":{"epoch":"2026-05-25T00:05:07.469088Z","epoch_age_seconds":74185,"freshness":"FRESH","line1":"1 47787U 21018A   26145.00355867 -.00001761  00000+0 -45005-4 0  9991","line2":"2 47787  53.1621 250.7593 0000431 228.0184 132.0780 15.31704447288372","mean_motion":15.31704447,"eccentricity":4.31e-5,"inclination_deg":53.1621,"raan_deg":250.7593,"arg_perigee_deg":228.0184,"mean_anomaly_deg":132.078,"bstar":-4.5005e-5,"rev_number":28837,"period_min":94.012915012448,"perigee_km":470.43155295497,"apogee_km":471.02192500927,"semimajor_km":6848.8637389821,"source":"CELESTRAK","updated_at":"2026-05-25T13:38:16.597090Z"}}}